Simultaneous Nadir Overpasses (SNOs) Predictions

Prediction of SNOs between NOAA-19 and NPP Satellite Orbit:

Table of predicted SNOs for the next 14.0 days since TLE Epoch: 4/3/2021
Index Date (NOAA-19) Time (NOAA-19) Lat,Lon (NOAA-19) SZA (NOAA-19 ) Date (NPP) Time (NPP) Lat,Lon (NPP) SZA (NPP ) Distance(km) Time Diff (sec)
1 04/10/2021 23:47:28 78.43, 155.53 71.45 04/10/2021 23:48:41 78.45, 155.59 71.44 2.84 73
2 04/11/2021 00:38:32 -78.45, -37.08 108.56 04/11/2021 00:39:25 -78.44, -37.01 108.60 2.47 53
3 04/11/2021 01:29:28 78.44, 130.13 71.43 04/11/2021 01:30:11 78.46, 130.18 71.42 1.98 43
4 04/11/2021 02:20:32 -78.47, -62.49 108.58 04/11/2021 02:20:55 -78.44, -62.41 108.62 3.31 23
5 04/11/2021 03:11:28 78.46, 104.72 71.41 04/11/2021 03:11:41 78.46, 104.78 71.40 1.37 13
6 04/11/2021 04:02:32 -78.48, -87.89 108.61 04/11/2021 04:02:26 -78.49, -88.04 108.59 3.32 6
7 04/11/2021 04:53:28 78.47, 79.32 71.38 04/11/2021 04:53:11 78.47, 79.38 71.38 1.38 17
8 04/11/2021 05:44:32 -78.50,-113.30 108.63 04/11/2021 05:43:56 -78.49,-113.44 108.60 3.29 36
9 04/11/2021 06:35:28 78.49, 53.92 71.36 04/11/2021 06:34:41 78.47, 53.97 71.36 2.00 47
10 04/11/2021 07:26:33 -78.47,-138.94 108.66 04/11/2021 07:25:26 -78.50,-138.85 108.62 3.18 67
11 04/11/2021 08:17:26 78.57, 28.99 71.36 04/11/2021 08:16:13 78.55, 28.11 71.46 19.55 73



Historial Predications of SNOs between NOAA-19 and NPP
